Wheeling, WV

10:50 PM EDT on June 27, 2017 (GMT -0400)
Wheeling-Ohio County

Weather History for KHLG - April, 2013

Change the Weather History Date:

Monday, April 8, 2013

  Actual Average Record
Temperature  
Mean Temperature 61 °F 49 °F  
Max Temperature 74 °F 59 °F 79 °F (2001)
Min Temperature 47 °F 39 °F 23 °F (2007)
Degree Days  
Heating Degree Days 4 16  
Month to date heating degree days 168 141  
Since 1 July heating degree days 5066 5081  
Cooling Degree Days 0    
Month to date cooling degree days 0  
Year to date cooling degree days 0  
Growing Degree Days 10 (Base 50)    
Moisture  
Dew Point 43 °F    
Average Humidity 54    
Maximum Humidity 74    
Minimum Humidity 33    
Precipitation  
Precipitation T in 0.10 in 0.44 in (2015)
Month to date precipitation 0.01 0.82  
Sea Level Pressure  
Sea Level Pressure 29.97 in    
Wind  
Wind Speed 11 mph (SSW)    
Max Wind Speed 24 mph    
Max Gust Speed 36 mph    
Visibility 10 miles    
Events Rain    
T = Trace of Precipitation, MM = Missing Value Source: NWS Daily Summary

Daily Weather History Graph

Daily Weather History Graph

Search for Another Location

Airport or City:

Trip Planner

Search our weather history database for the weather conditions in past years. The results will help you decide how hot, cold, wet, or windy it might be!

Date:

Astronomy

Apr. 08, 2013 Rise Set
Actual Time 6:54 AM EDT 7:54 PM EDT
Civil Twilight 6:27 AM EDT 8:22 PM EDT
Nautical Twilight 5:54 AM EDT 8:55 PM EDT
Astronomical Twilight 5:20 AM EDT 9:29 PM EDT
Moon 5:44 AM EDT (4/8) 6:27 PM EDT (4/8)
Length of Visible Light 13h 54m
Length of Day
12h 59m
Waning Crescent, 3% of the Moon is Illuminated
Apr 8
Waning Crescent
Apr 10
New
Apr 18
First Quarter
Apr 25
Full
May 2
Last Quarter

Hourly Weather History & Observations

Time (EDT) Temp. Dew Point Humidity Pressure Visibility Wind Dir Wind Speed Gust Speed Precip Events Conditions
12:53 AM 54.0 °F 39.9 °F 59% 30.01 in 10.0 mi NNE 3.5 mph - N/A   Clear
1:53 AM 51.1 °F 39.0 °F 63% 30.02 in 10.0 mi NE 3.5 mph - N/A   Partly Cloudy
2:53 AM 52.0 °F 39.9 °F 63% 30.02 in 10.0 mi Calm Calm - 0.00 in Rain Light Rain
3:53 AM 51.1 °F 39.9 °F 66% 29.99 in 10.0 mi ENE 8.1 mph - 0.00 in   Overcast
4:53 AM 50.0 °F 39.9 °F 68% 30.01 in 10.0 mi ENE 3.5 mph - N/A   Overcast
5:53 AM 48.9 °F 39.9 °F 71% 30.01 in 10.0 mi ESE 5.8 mph - N/A   Clear
6:53 AM 50.0 °F 39.9 °F 68% 30.02 in 10.0 mi East 6.9 mph - N/A   Clear
7:53 AM 50.0 °F 42.1 °F 74% 30.03 in 10.0 mi ESE 4.6 mph - N/A   Clear
8:53 AM 57.0 °F 46.9 °F 69% 30.02 in 10.0 mi SSE 6.9 mph - N/A   Clear
9:53 AM 64.0 °F 48.0 °F 56% 30.01 in 10.0 mi SSW 9.2 mph - N/A   Clear
10:53 AM 64.9 °F 46.9 °F 52% 30.00 in 10.0 mi SSW 12.7 mph - N/A   Clear
11:53 AM 69.1 °F 41.0 °F 36% 29.99 in 10.0 mi South 18.4 mph 23.0 mph N/A   Clear
12:53 PM 70.0 °F 43.0 °F 38% 29.96 in 10.0 mi South 16.1 mph - N/A   Clear
1:53 PM 73.0 °F 43.0 °F 34% 29.94 in 10.0 mi SSW 11.5 mph 23.0 mph N/A   Scattered Clouds
2:53 PM 72.0 °F 43.0 °F 35% 29.94 in 10.0 mi SW 17.3 mph 25.3 mph N/A   Mostly Cloudy
3:53 PM 73.0 °F 43.0 °F 34% 29.90 in 10.0 mi SW 18.4 mph 29.9 mph N/A   Scattered Clouds
4:53 PM 72.0 °F 43.0 °F 35% 29.90 in 10.0 mi SW 13.8 mph 27.6 mph N/A   Overcast
5:53 PM 71.1 °F 44.1 °F 38% 29.91 in 10.0 mi SW 13.8 mph 29.9 mph N/A   Overcast
6:53 PM 71.1 °F 44.1 °F 38% 29.91 in 10.0 mi SW 12.7 mph 23.0 mph N/A   Overcast
7:53 PM 70.0 °F 45.0 °F 41% 29.92 in 10.0 mi SW 16.1 mph 25.3 mph N/A   Clear
8:53 PM 69.1 °F 45.0 °F 42% 29.92 in 10.0 mi SSW 11.5 mph - N/A   Clear
9:53 PM 68.0 °F 46.0 °F 45% 29.95 in 10.0 mi SW 11.5 mph 18.4 mph N/A   Mostly Cloudy
10:53 PM 68.0 °F 45.0 °F 43% 29.96 in 10.0 mi SW 12.7 mph 19.6 mph N/A   Mostly Cloudy
11:53 PM 66.0 °F 46.0 °F 48% 29.97 in 10.0 mi WSW 9.2 mph - N/A   Mostly Cloudy